Weather observations for the past three days for
Toccoa Le Tourneau Airport
Imperial (Metric)
Date Time (edt) Wind (mph) Vis. (mi.) Weather Sky Cond. Temperature (ºF) Relative Humidity Wind Chill (°F) Heat Index (°F) Pressure Precipitation (in)
Air Dwpt 6 hour altimeter (in) sea level (mb) 1 hr 3 hr 6 hr
Max. Min.
26 22:55 Calm 7.00 Fog/Mist CLR 73.6 72.3 96% 29.89 0.0
26 22:35 S 3 7.00 Partly Cloudy SCT050 SCT060 74.3 72.5 94% 29.89 0.0
26 22:15 Calm 7.00 Mostly Cloudy SCT050 BKN060 75.2 73.4 94% 74 29.89 0.0
26 21:55 Calm 7.00 Mostly Cloudy BKN050 75.4 73.4 94% 74 29.89 0.0
26 21:35 Calm 7.00 Mostly Cloudy BKN050 BKN055 BKN090 75.4 73.6 94% 74 29.89 0.0
26 21:15 Calm 10.00 Mostly Cloudy BKN050 BKN070 BKN090 76.5 73.6 91% 77 29.89 0.0
26 20:55 Calm 7.00 Mostly Cloudy BKN050 75.9 73.6 93% 76 29.88 0.0
26 20:35 E 6 7.00 Fog/Mist OVC050 77 74.7 93% 78 29.88 0.0
26 20:15 Calm 7.00 Overcast SCT043 BKN050 OVC055 79 76.3 91% 83 29.88 0.0
26 19:55 Calm 7.00 Mostly Cloudy BKN055 BKN070 BKN100 79.3 76.3 88.5 77.4 90% 84 29.88 0.0 0.03
26 19:35 S 3 7.00 Mostly Cloudy BKN055 BKN070 79.2 76.3 91% 83 29.87 0.0
26 19:15 Calm 10.00 Mostly Cloudy SCT044 BKN055 BKN080 80.2 75.4 85% 86 29.87 0.0
26 18:55 Calm 10.00 Mostly Cloudy SCT043 BKN050 BKN060 80.6 74.7 82% 86 29.87 0.0 0.03
26 18:35 Calm 7.00 Overcast SCT041 BKN060 OVC080 78.6 75.2 89% 82 29.87 0.0 0.03
26 18:15 SW 5 4.00 Light Rain SCT035 BKN050 OVC110 79 74.1 85% 83 29.88 0.0 0.03
26 17:55 S 3 10.00 Partly Cloudy SCT090 SCT120 83.1 72 69% 88 29.88 0.0
26 17:35 Calm 10.00 Mostly Cloudy SCT033 SCT044 BKN100 84.9 72.9 67% 92 29.89 0.0
26 17:15 S 5 10.00 Mostly Cloudy SCT035 SCT048 BKN060 83.5 71.4 67% 89 29.89 0.0
26 16:55 S 5 7.00 Mostly Cloudy SCT048 SCT080 BKN090 84.7 70.9 63% 90 29.88 0.0
26 16:35 SW 8 10.00 Mostly Cloudy SCT033 SCT075 BKN090 85.5 70.5 61% 90 29.88 0.0
26 16:15 S 5 10.00 Partly Cloudy SCT034 SCT042 SCT085 85.6 70.9 61% 91 29.88 0.0
26 15:55 SW 10 10.00 Mostly Cloudy BKN034 BKN040 BKN049 87.1 71.6 60% 93 29.89 0.0
26 15:35 S 9 10.00 Mostly Cloudy BKN034 BKN100 85.5 71.2 63% 91 29.89 0.0
26 15:15 S 7 10.00 Mostly Cloudy SCT034 SCT042 BKN100 86.2 70.3 59% 91 29.89 0.0
26 14:55 S 6 10.00 Mostly Cloudy BKN034 BKN040 84.2 70.9 64% 89 29.91 0.0
26 14:35 SW 7 10.00 Partly Cloudy SCT034 SCT060 84.7 70.2 62% 89 29.92 0.0
26 14:15 SW 10 10.00 Partly Cloudy SCT035 SCT043 SCT060 85.8 70.3 60% 91 29.92 0.0
26 13:55 SW 6 10.00 Mostly Cloudy BKN033 84 69.6 84.9 67.1 62% 88 29.93 0.0
26 13:35 S 7 10.00 Mostly Cloudy SCT033 BKN049 84.2 70.9 64% 89 29.94 0.0
26 13:15 S 7 10.00 Partly Cloudy SCT046 83.3 68.4 61% 87 29.94 0.0
26 12:55 S 6 10.00 Partly Cloudy SCT042 82.2 68.2 63% 85 29.96 0.0
26 12:35 S 6 10.00 Fair CLR 83.1 67.8 60% 86 29.96 0.0
26 12:15 S 5 10.00 Fair CLR 83.1 66.7 58% 86 29.96 0.0
26 11:55 Calm 10.00 Fair CLR 82.2 66 58% 84 29.95 0.0
26 11:35 SE 3 10.00 Fair CLR 82.6 66.9 59% 85 29.94 0.0
26 11:15 Calm 10.00 Fair CLR 80.8 67.8 65% 83 29.95 0.0
26 10:55 Calm 10.00 Fair CLR 79 66.6 66% 81 29.95 0.0
26 10:35 Calm 10.00 Fair CLR 77.9 66.4 68% 80 29.94 0.0
26 10:15 Calm 10.00 Fair CLR 76.8 65.8 69% 79 29.95 0.0
26 09:55 Calm 10.00 Fair CLR 75.7 65.8 71% 77 29.95 0.0
26 09:35 N 3 10.00 Fair CLR 75 65.1 71% 77 29.95 0.0
26 09:15 N 5 10.00 Fair CLR 73.4 65.1 75% 29.95 0.0
26 08:55 N 3 10.00 Fair CLR 71.2 64 78% 29.95 0.0
26 08:35 Calm 10.00 Fair CLR 70.3 63.9 80% 29.96 0.0
26 08:15 NW 3 10.00 Fair CLR 69.6 63.1 80% 29.95 0.0
26 07:55 Calm 10.00 Fair CLR 67.1 63 67.3 60.8 87% 29.94 0.0
26 07:35 Calm 10.00 Fair CLR 64 62.2 94% 29.94 0.0
26 07:15 Calm 10.00 Fair CLR 62.1 61 96% 29.93 0.0
26 06:55 W 3 10.00 Fair CLR 61.2 60.1 96% 29.93 0.0
26 06:35 Calm 10.00 Fair CLR 61 59.7 96% 29.93 0.0
26 06:15 Calm 10.00 Fair CLR 61.9 60.6 96% 29.93 0.0
26 05:55 Calm 10.00 Fair CLR 61.2 60.1 96% 29.92 0.0
26 05:35 Calm 10.00 Fair CLR 61.2 60.1 96% 29.93 0.0
26 05:15 Calm 10.00 Fair CLR 62.8 61.2 94% 29.93 0.0
26 04:55 W 3 10.00 Fair CLR 62.2 60.6 94% 29.92 0.0
26 04:35 W 3 10.00 Fair CLR 61.7 60.6 96% 29.92 0.0
26 04:15 Calm 10.00 Fair CLR 62.2 61 96% 29.91 0.0
26 03:55 Calm 10.00 Fair CLR 62.8 61 94% 29.91 0.0
26 03:35 Calm 10.00 Fair CLR 62.4 61.2 96% 29.92 0.0
26 03:15 Calm 10.00 Fair CLR 62.6 61.5 96% 29.93 0.0
26 02:55 Calm 10.00 Fair CLR 64.4 61.9 92% 29.93 0.0
26 02:35 NW 6 10.00 Fair CLR 65.1 61.9 89% 29.93 0.0
26 02:15 Calm 10.00 Fair CLR 64 62.1 93% 29.93 0.0
26 01:55 Calm 10.00 Fair CLR 65.1 62.1 80.8 64.2 90% 29.94 0.0
26 01:35 Calm 10.00 Fair CLR 66.9 62.2 85% 29.94 0.0
26 01:15 N 3 10.00 Fair CLR 67.8 62.1 82% 29.94 0.0
26 00:55 NE 3 10.00 Fair CLR 64.8 62.4 92% 29.94 0.0
26 00:35 W 5 10.00 Fair CLR 71.1 61.5 72% 29.94 0.0
26 00:15 W 7 10.00 Fair CLR 71.8 61.5 70% 29.95 0.0
25 23:55 W 5 10.00 Fair CLR 72.3 61.9 70% 29.94 0.0
25 23:35 W 5 10.00 Fair CLR 71.4 62.4 73% 29.94 0.0
25 23:15 W 5 10.00 Fair CLR 70.7 62.4 75% 29.94 0.0
25 22:55 W 6 10.00 Fair CLR 71.6 62.2 72% 29.94 0.0
25 22:35 Calm 10.00 Fair CLR 68.4 63.3 84% 29.94 0.0
25 22:15 W 3 10.00 Fair CLR 72.7 61.9 69% 29.92 0.0
25 21:55 W 5 10.00 Fair CLR 74.3 61.5 65% 29.92 0.0
25 21:35 W 5 10.00 Fair CLR 74.3 61.7 65% 29.92 0.0
25 21:15 W 5 10.00 Fair CLR 74.8 62.1 65% 29.91 0.0
25 20:55 W 3 10.00 Fair CLR 76.5 62.1 61% 78 29.91 0.0
25 20:35 W 3 10.00 Fair CLR 77.7 61.7 58% 79 29.91 0.0
25 20:15 W 5 10.00 Fair CLR 79.7 61.7 54% 81 29.9 0.0
25 19:55 W 6 10.00 Fair CLR 81 62.6 86.5 71.6 54% 82 29.9 0.0
25 19:35 W 5 10.00 Fair CLR 81.9 64.2 55% 83 29.9 0.0
25 19:15 W 5 10.00 Fair CLR 83.1 63.5 52% 84 29.89 0.0
25 18:55 W 6 10.00 Fair CLR 84.4 63 49% 85 29.89 0.0
25 18:35 W 8 10.00 Fair CLR 85.1 62.6 47% 86 29.89 0.0
25 18:15 W 7 10.00 Fair CLR 85.8 61.2 44% 86 29.89 0.0
25 17:55 W 8 10.00 Fair CLR 86.2 59.5 41% 86 29.88 0.0
25 17:35 W 7 10.00 Fair CLR 86 58.8 40% 85 29.89 0.0
25 17:15 W 5 10.00 Fair CLR 85.8 61 43% 86 29.88 0.0
25 16:55 W 7 10.00 Fair CLR 85.8 63 46% 87 29.89 0.0
25 16:35 W 5 10.00 Fair CLR 86 62.8 46% 87 29.89 0.0
25 16:15 W 8 10.00 Fair CLR 85.3 62.6 47% 86 29.88 0.0
25 15:55 W 6 10.00 Fair CLR 84 61.9 47% 85 29.89 0.0
25 15:35 W 6 10.00 Fair CLR 83.5 61 47% 84 29.89 0.0
25 15:15 W 3 10.00 Fair CLR 80.1 67.3 65% 82 29.9 0.0
25 14:55 SW 6 10.00 Fair CLR 77.7 68 72% 80 29.9 0.0
25 14:35 SW 6 10.00 Fair CLR 76.3 68.7 78% 78 29.9 0.0
25 14:15 SW 6 10.00 Fair CLR 74.1 67.8 81% 29.91 0.0
25 13:55 NW 3 10.00 Fair CLR 71.6 65.7 72.1 65.5 82% 29.92 0.0 0.26
25 13:35 W 5 10.00 Fair CLR 69.8 66.6 90% 29.94 0.0
25 13:15 N 8 10.00 Partly Cloudy SCT080 SCT100 69.6 65.8 88% 29.93 0.0
25 12:55 W 3 10.00 Light Rain SCT070 BKN090 OVC110 67.1 64.2 91% 29.97 0.0 0.11
25 12:35 W 8 10.00 Rain BKN090 OVC110 66 63.1 91% 30 0.0 0.1
25 11:55 W 10 7.00 Rain OVC120 65.8 63.1 91% 30.02 0.0 0.04
25 11:35 NW 10 10.00 Mostly Cloudy BKN120 65.8 62.8 90% 30.01 0.0 0.02
25 11:15 N 8 10.00 Light Rain SCT047 SCT060 BKN120 66 63 90% 30 0.0 0.02
25 10:55 N 8 G 23 2.00 Rain Fog/Mist SCT021 BKN039 OVC048 66.2 63.7 92% 30.01 0.0 0.11 0.11
25 10:35 NW 7 10.00 Thunderstorm Rain in Vicinity SCT040 SCT048 BKN080 69.8 67.5 92% 30 0.0 0.01
25 10:15 W 3 10.00 Fair CLR 70.3 67.1 90% 29.98 0.0
25 09:55 NW 3 10.00 Fair CLR 70.2 66.9 90% 29.97 0.0
25 09:35 Calm 10.00 Fair CLR 70 66.7 90% 29.96 0.0
25 09:15 Calm 10.00 Fair CLR 70.2 66.4 88% 29.96 0.0
25 08:55 Calm 10.00 Fair CLR 69.8 66.4 89% 29.96 0.0
25 08:35 N 5 10.00 Partly Cloudy SCT044 69.4 66.4 90% 29.96 0.0
25 08:15 NE 3 10.00 Partly Cloudy SCT044 68.7 66.2 92% 29.95 0.0
25 07:55 Calm 10.00 Fair CLR 68.2 66 68.7 64.4 93% 29.95 0.0
25 07:35 N 3 10.00 Fair CLR 66.7 65.5 96% 29.94 0.0
25 07:15 NW 3 10.00 Fair CLR 65.8 64.9 97% 29.94 0.0
25 06:55 Calm 5.00 Fog/Mist CLR 65.1 64.6 98% 29.94 0.0
25 06:35 Calm 5.00 Fog/Mist CLR 64.6 63.9 98% 29.94 0.0
25 06:15 N 3 7.00 Fog/Mist SCT001 64.9 64.4 98% 29.94 0.0
25 05:55 Calm 10.00 Mostly Cloudy BKN001 65.3 64.8 98% 29.94 0.0
25 05:35 Calm 7.00 Partly Cloudy SCT001 64.8 64.2 98% 29.93 0.0
25 05:15 Calm 10.00 Fair CLR 65.7 64.6 96% 29.93 0.0
25 04:55 Calm 10.00 Fair CLR 65.8 65.1 98% 29.92 0.0
25 04:35 Calm 10.00 Fair CLR 65.8 65.1 98% 29.93 0.0
25 04:15 Calm 7.00 Thunderstorm in Vicinity CLR 65.7 64.8 97% 29.92 0.0
25 03:55 Calm 7.00 Fog/Mist CLR 65.8 64.9 97% 29.91 0.0
25 03:35 SW 3 10.00 Fair CLR 67.1 65.8 96% 29.91 0.0
25 03:15 Calm 10.00 Fair CLR 67.1 66.2 97% 29.91 0.0
25 02:55 SW 3 10.00 Partly Cloudy SCT110 67.5 66 95% 29.91 0.0
25 02:35 Calm 10.00 Mostly Cloudy BKN048 BKN110 68 65.8 93% 29.92 0.0
25 02:15 NW 5 10.00 Overcast OVC050 68.5 66.4 93% 29.92 0.0
25 01:55 Calm 10.00 Overcast OVC050 68.7 66.2 76.5 67.6 92% 29.92 0.0 0.01
25 01:35 Calm 10.00 Overcast OVC050 68 66.2 94% 29.92 0.0
25 01:15 SW 6 10.00 Partly Cloudy SCT050 SCT120 68.9 66 91% 29.93 0.0
25 00:55 W 3 10.00 Partly Cloudy SCT055 SCT095 SCT120 68.2 66.2 93% 29.94 0.0 0.01
25 00:35 SW 6 10.00 Light Rain SCT055 SCT070 BKN110 68.9 66.2 91% 29.94 0.0 0.01
25 00:15 SW 7 10.00 Rain SCT049 SCT055 SCT110 69.6 64.9 85% 29.94 0.0
24 23:55 SW 6 10.00 Fair CLR 70 63 79% 29.94 0.0
24 23:35 SW 7 10.00 Fair CLR 70.2 63 78% 29.94 0.0
24 23:15 S 3 10.00 Fair CLR 70.3 63.7 80% 29.93 0.0
24 22:55 S 3 10.00 Fair CLR 70.3 63.5 79% 29.93 0.0
24 22:35 Calm 10.00 Fair CLR 71.2 63.5 77% 29.93 0.0
24 22:15 Calm 10.00 Fair CLR 71.8 63.1 74% 29.92 0.0
24 21:55 SW 7 10.00 Fair CLR 72 63.3 74% 29.91 0.0
24 21:35 Calm 10.00 Fair CLR 72.1 63.9 75% 29.9 0.0
24 21:15 W 3 10.00 Partly Cloudy SCT120 72.3 64.2 76% 29.9 0.0
24 20:55 S 3 10.00 Partly Cloudy SCT120 72.9 63 71% 29.9 0.0
24 20:35 SW 7 10.00 Mostly Cloudy BKN120 75.2 62.6 65% 77 29.9 0.0
24 20:15 SW 8 10.00 Mostly Cloudy BKN120 75.6 62.4 64% 78 29.9 0.0
24 19:55 SW 12 10.00 Mostly Cloudy SCT065 SCT090 BKN120 76.6 62.8 90.7 76.5 62% 78 29.89 0.0
24 19:35 SW 8 10.00 Mostly Cloudy SCT080 BKN100 BKN120 77.5 63.3 62% 79 29.88 0.0
24 19:15 SW 8 10.00 Partly Cloudy SCT090 SCT110 79.2 62.8 57% 81 29.89 0.0
24 18:55 W 8 10.00 Fair CLR 80.1 63.1 56% 81 29.89 0.0
24 18:35 W 9 G 17 10.00 Fair CLR 80.8 63.9 56% 82 29.89 0.0
24 18:15 W 8 10.00 Partly Cloudy SCT120 82.2 65.3 57% 84 29.89 0.0
24 17:55 NW 8 G 17 10.00 Mostly Cloudy BKN120 82.9 64.4 54% 85 29.89 0.0
24 17:35 W 12 10.00 Mostly Cloudy SCT055 BKN120 84.6 65.3 53% 86 29.91 0.0
24 17:15 W 12 G 17 10.00 Partly Cloudy SCT120 86 65.3 50% 88 29.91 0.0
24 16:55 W 8 G 17 10.00 Partly Cloudy SCT110 87.4 65.3 48% 89 29.9 0.0
24 16:35 W 8 10.00 Mostly Cloudy BKN110 88.7 65.7 47% 91 29.91 0.0
24 16:15 W 7 10.00 Partly Cloudy SCT100 88.3 66.2 48% 91 29.9 0.0
24 15:55 W 9 10.00 Partly Cloudy SCT110 88.7 64.6 45% 90 29.91 0.0
24 15:35 W 8 G 17 10.00 Partly Cloudy SCT050 SCT065 SCT090 90.1 65.1 44% 92 29.91 0.0
24 15:15 SW 13 G 18 10.00 Mostly Cloudy SCT050 SCT065 BKN090 88.3 65.5 47% 90 29.91 0.0
24 14:55 SW 10 G 16 10.00 Partly Cloudy SCT049 SCT060 89.4 66.2 46% 92 29.92 0.0
24 14:35 W 10 G 17 10.00 Partly Cloudy SCT049 89.1 65.8 46% 91 29.93 0.0
24 14:15 SW 10 10.00 Partly Cloudy SCT045 86.7 67.5 53% 90 29.94 0.0
24 13:55 SW 10 10.00 Partly Cloudy SCT042 SCT048 86.7 67.5 89.1 66.6 53% 90 29.94 0.0
24 13:35 SW 10 10.00 Partly Cloudy SCT045 87.4 64.9 47% 89 29.95 0.0
24 13:15 SW 10 10.00 Partly Cloudy SCT042 86.7 66.2 51% 89 29.95 0.0
24 12:55 SW 9 10.00 Fair CLR 84.7 68.7 59% 88 29.95 0.0
24 12:35 S 7 10.00 Fair CLR 84.6 67.1 56% 87 29.95 0.0
24 12:15 SW 8 10.00 Fair CLR 83.1 67.3 59% 86 29.96 0.0
24 11:55 SW 7 10.00 Fair CLR 82.4 68.5 63% 86 29.96 0.0
24 11:35 S 6 10.00 Fair CLR 81.9 68.7 65% 85 29.96 0.0
24 11:15 W 3 10.00 Fair CLR 81.5 67.5 63% 84 29.96 0.0
24 10:55 SW 6 10.00 Fair CLR 80.6 67.8 65% 83 29.96 0.0
24 10:35 Calm 10.00 Fair CLR 79.7 66.7 65% 82 29.97 0.0
24 10:15 W 3 10.00 Partly Cloudy SCT090 78.8 66.7 67% 81 29.96 0.0
24 09:55 Calm 10.00 Fair CLR 77.2 67.5 72% 79 29.95 0.0
24 09:35 Calm 10.00 Fair CLR 75 69.8 84% 75 29.95 0.0
24 09:15 Calm 10.00 Fair CLR 72.3 68.9 89% 29.96 0.0
24 08:55 Calm 10.00 Fair CLR 70.7 68.9 94% 29.96 0.0
24 08:35 Calm 10.00 Fair CLR 69.1 67.8 96% 29.97 0.0
24 08:15 Calm 7.00 Fog/Mist SCT095 67.3 66.7 98% 29.96 0.0
24 07:55 Calm 10.00 Partly Cloudy SCT095 66.6 65.8 68.7 65.1 98% 29.96 0.0
24 07:35 Calm 1.75 Fog/Mist BKN002 65.7 65.3 99% 29.96 0.0
24 07:15 Calm 0.25 Fog OVC002 65.3 64.8 98% 29.96 0.0
24 06:55 Calm 7.00 Fair CLR 65.5 64.9 98% 29.95 0.0
24 06:35 NW 3 7.00 Fair CLR 65.8 64.9 97% 29.95 0.0
24 06:15 W 5 10.00 Fair CLR 67.1 66.2 97% 29.95 0.0
24 05:55 SW 5 5.00 Fog/Mist SCT060 65.7 65.3 99% 29.95 0.0
24 05:35 W 5 7.00 Partly Cloudy SCT060 66 65.8 99% 29.95 0.0
24 05:15 Calm 7.00 Fog/Mist SCT002 65.7 65.5 99% 29.95 0.0
24 04:55 Calm 0.25 Fog OVC002 65.8 65.7 99% 29.95 0.0
24 04:35 Calm 0.50 Fog OVC002 66 65.7 99% 29.95 0.0
24 04:15 Calm 0.25 Fog OVC002 66.4 66.2 99% 29.95 0.0
24 03:55 Calm 0.25 Fog OVC002 66.7 66.4 99% 29.95 0.0
24 03:35 E 3 0.25 Fog OVC002 66.9 66.6 99% 29.95 0.0
24 03:15 E 3 0.50 Fog BKN002 66.9 66.6 99% 29.96 0.0
24 02:55 Calm 5.00 Fog/Mist CLR 67.8 67.1 98% 29.96 0.0
24 02:35 Calm 10.00 Partly Cloudy SCT080 68.4 67.6 98% 29.97 0.0
24 02:15 SW 5 7.00 Mostly Cloudy BKN090 BKN100 BKN120 68.5 68.2 99% 29.97 0.0
24 01:55 SW 5 4.00 Fog/Mist SCT002 OVC090 68.5 68.2 77.7 68.2 99% 29.98 0.0 0.08
24 01:35 Calm 1.25 Fog/Mist BKN002 OVC090 68.4 68 99% 29.98 0.0
24 01:15 Calm 2.50 Fog/Mist SCT002 OVC090 68.7 68.4 99% 30 0.0
24 00:55 Calm 1.00 Fog/Mist OVC002 68.4 68 99% 29.99 0.0
24 00:35 Calm 1.00 Fog/Mist OVC002 69.1 68.7 99% 30 0.0
24 00:15 Calm 5.00 Fog/Mist SCT002 BKN100 BKN120 69.1 68.5 98% 29.99 0.0
23 23:55 NE 3 3.00 Fog/Mist SCT004 SCT024 SCT110 68.9 68.4 98% 29.99 0.0 0.01
23 23:35 Calm 5.00 Light Rain Fog/Mist SCT004 SCT024 BKN120 69.4 68.9 98% 30 0.0 0.01
Date Time (edt) Wind (mph) Vis. (mi.) Weather Sky Cond. Air Dwpt Max. Min. Relative Humidity Wind Chill (°F) Heat Index (°F) altimeter (in) sea level (mb) 1 hr 3 hr 6 hr
6 hour
Temperature (ºF) Pressure Precipitation (in)